Waarnemingen

Advertentie
Mijn weer
Twenthe, Nederland (6290): temperatuur & dauwpunt: 15.01.2017 11:00:00 - 21.01.2017 11:00:00 (CET)Twenthe, Nederland (6290): temperatuur 5cm: 15.01.2017 11:00:00 - 21.01.2017 11:00:00 (CET)Twenthe, Nederland (6290): windsnelheid & windstoten: 15.01.2017 11:00:00 - 21.01.2017 11:00:00 (CET)Twenthe, Nederland (6290): windrichting: 15.01.2017 11:00:00 - 21.01.2017 11:00:00 (CET)Twenthe, Nederland (6290): luchtdruk: 15.01.2017 11:00:00 - 21.01.2017 11:00:00 (CET)Twenthe, Nederland (6290): zicht: 15.01.2017 11:00:00 - 21.01.2017 11:00:00 (CET)Twenthe, Nederland (6290): neerslag: 15.01.2017 11:00:00 - 21.01.2017 11:00:00 (CET)
Datum & Tijd tt [°C] td [°C] tt 5cm [°C] ff [km/u] ff [kn] fx [km/u] fx [kn] dd ppp [hPa] vv [km] rr [mm]
21.01.2017 11:00:00 0,7 -1,1 0,1 7 4 18 10 ONO 1032,1 10 0,0
21.01.2017 10:00:00 -0,5 -1,1 -2,5 11 6 14 8 NO 1032,2 4,8 0,0
21.01.2017 09:00:00 -2,1 -2,6 -5,0 7 4 14 8 NO 1032,2 2,6 0,0
21.01.2017 08:00:00 -2,0 -2,2 -6,9 11 6 14 8 NO 1032,0 2,2 0,0
21.01.2017 07:00:00 -1,9 -2,0 -7,1 7 4 11 6 NO 1032,2 1,9 0,0
21.01.2017 06:00:00 -2,1 -2,3 -7,5 7 4 11 6 NO 1032,6 3,5 0,0
21.01.2017 05:00:00 -1,5 -2,0 -6,8 7 4 11 6 NO 1032,8 7 0,0
21.01.2017 04:00:00 -2,8 -3,3 -6,8 7 4 11 6 NO 1033,2 7 0,0
21.01.2017 03:00:00 -2,9 -3,4 -6,6 7 4 7 4 NO 1033,5 8 0,1
21.01.2017 02:00:00 -2,6 -3,9 -5,5 7 4 7 4 NO 1033,5 12 0,0
21.01.2017 01:00:00 -1,3 -3,6 -4,7 4 2 7 4 NNO 1034,0 16 0,0
21.01.2017 00:00:00 -2,3 -4,0 -3,3 7 4 7 4 NNO 1034,5 17 0,0
20.01.2017 23:00:00 -2,5 -5,1 -4,9 7 4 11 6 NNO 1034,7 20 0,0
20.01.2017 22:00:00 -3,1 -6,3 -6,3 4 2 11 6 NO 1034,8 23 0,0
20.01.2017 21:00:00 -2,7 -6,8 -6,7 4 2 11 6 NO 1035,0 26 0,0
20.01.2017 20:00:00 -2,8 -6,8 -6,2 7 4 14 8 NO 1034,9 34 0,0
20.01.2017 19:00:00 0,0 -5,8 -4,7 11 6 14 8 ONO 1035,1 33 0,0
20.01.2017 18:00:00 -1,9 -6,2 -6,4 7 4 11 6 NO 1035,1 24 0,0
20.01.2017 17:00:00 -0,7 -6,5 -5,2 7 4 11 6 NNO 1035,2 34 0,0
20.01.2017 16:00:00 0,7 -7,5 -2,4 11 6 14 8 NO 1035,2 37 0,0
20.01.2017 15:00:00 1,1 -6,8 -1,0 11 6 14 8 NO 1035,1 29 0,0
20.01.2017 14:00:00 2,5 -7,5 1,0 7 4 14 8 NO 1035,3 29 0,0
20.01.2017 13:00:00 1,0 -6,6 0,5 11 6 14 8 NO 1035,9 29 0,0
20.01.2017 12:00:00 0,5 -5,8 -1,5 4 2 4 2 WNW 1036,5 21 0,0
20.01.2017 11:00:00 -2,1 -4,3 -4,2 0 0 7 4 N 1036,8 13 0,0
20.01.2017 10:00:00 -4,5 -5,5 -7,1 4 2 7 4 NO 1036,7 9 0,0
20.01.2017 09:00:00 -6,5 -7,2 -9,8 0 0 7 4 N 1036,8 6 0,0
20.01.2017 08:00:00 -7,4 -7,9 -10,1 4 2 7 4 NNO 1036,5 1,6 0,0
20.01.2017 07:00:00 -6,9 -7,4 -9,8 0 0 7 4 N 1036,7 7 0,0
20.01.2017 06:00:00 -7,3 -7,9 -9,7 4 2 4 2 NO 1036,6 4,0 0,0
20.01.2017 05:00:00 -6,0 -6,8 -9,2 4 2 7 4 NO 1036,9 9 0,0
20.01.2017 04:00:00 -6,0 -6,9 -9,0 0 0 11 6 N 1036,8 7 0,0
20.01.2017 03:00:00 -5,6 -6,4 -8,8 7 4 11 6 NO 1036,8 8 0,0
20.01.2017 02:00:00 -5,3 -6,0 -8,9 4 2 7 4 NNO 1037,1 6 0,0
20.01.2017 01:00:00 -5,1 -5,8 -9,1 7 4 7 4 NNO 1037,4 6 0,0
20.01.2017 00:00:00 -4,9 -5,3 -8,6 4 2 7 4 NO 1037,6 4,9 0,0
19.01.2017 23:00:00 -5,3 -5,9 -8,6 4 2 7 4 ONO 1037,9 4,0 0,0
19.01.2017 22:00:00 -4,7 -4,9 -8,8 0 0 7 4 N 1038,1 6 0,0
19.01.2017 21:00:00 -4,8 -5,0 -8,1 7 4 7 4 NNO 1038,3 2,7 0,0
19.01.2017 20:00:00 -3,2 -3,7 -7,5 7 4 7 4 NNO 1038,2 5 0,0
19.01.2017 19:00:00 -3,8 -4,4 -7,9 4 2 4 2 ONO 1038,0 8 0,0
19.01.2017 18:00:00 -1,7 -4,0 -6,6 4 2 7 4 NNO 1037,8 12 0,0
19.01.2017 17:00:00 0,4 -4,2 -4,4 7 4 11 6 ONO 1037,8 17 0,0
19.01.2017 16:00:00 1,5 -6,2 -0,7 7 4 7 4 NNO 1037,5 25 0,0
19.01.2017 15:00:00 2,2 -6,1 0,9 4 2 7 4 NO 1037,8 25 0,0
19.01.2017 14:00:00 2,6 -5,8 0,5 0 0 4 2 N 1038,1 18 0,0
19.01.2017 13:00:00 1,2 -4,6 1,0 0 0 7 4 N 1038,4 16 0,0
19.01.2017 12:00:00 -0,3 -4,4 -1,4 4 2 7 4 N 1038,8 12 0,0
19.01.2017 11:00:00 -0,8 -3,8 -2,0 7 4 11 6 ZO 1039,0 11 0,0
19.01.2017 10:00:00 -2,5 -3,8 -2,8 7 4 7 4 NO 1039,2 8 0,0
19.01.2017 09:00:00 -3,4 -3,9 -4,2 4 2 7 4 ONO 1039,0 4,3 0,0
19.01.2017 08:00:00 -3,7 -4,3 -4,8 4 2 4 2 NNW 1038,5 4,2 0,0
19.01.2017 07:00:00 -3,7 -4,6 -4,4 0 0 4 2 N 1038,4 4,7 0,0
19.01.2017 06:00:00 -3,2 -4,4 -3,7 4 2 11 6 NNO 1038,7 8 0,0
19.01.2017 05:00:00 -2,6 -4,2 -2,6 7 4 11 6 OZO 1038,7 9 0,0
19.01.2017 04:00:00 -2,7 -3,8 -2,6 4 2 7 4 O 1038,9 9 0,0
19.01.2017 03:00:00 -2,9 -3,9 -2,8 4 2 7 4 NO 1038,7 7 0,0
19.01.2017 02:00:00 -2,9 -3,8 -3,0 7 4 7 4 N 1038,9 6 0,0
19.01.2017 01:00:00 -3,2 -4,2 -3,4 4 2 7 4 NO 1039,0 6 0,0
19.01.2017 00:00:00 -2,8 -3,6 -2,9 4 2 7 4 OZO 1039,4 6 0,0
18.01.2017 23:00:00 -4,8 -5,2 -7,1 4 2 7 4 O 1039,4 0,6 0,0
18.01.2017 22:00:00 -3,9 -4,2 -6,4 4 2 7 4 OZO 1039,4 1,6 0,0
18.01.2017 21:00:00 -2,6 -3,2 -2,8 4 2 7 4 NO 1039,5 3,3 0,0
18.01.2017 20:00:00 -2,4 -2,8 -2,2 4 2 7 4 NO 1039,6 3,5 0,0
18.01.2017 19:00:00 -2,5 -3,0 -2,9 7 4 7 4 NNO 1039,8 2,5 0,0
18.01.2017 18:00:00 -2,1 -2,6 -2,1 4 2 7 4 O 1039,8 3,6 0,0
18.01.2017 17:00:00 -2,0 -2,6 -1,9 4 2 7 4 O 1040,0 4,2 0,0
18.01.2017 16:00:00 -2,0 -2,6 -1,6 4 2 11 6 NO 1040,0 4,1 0,0
18.01.2017 15:00:00 -2,8 -3,6 -2,2 7 4 11 6 NO 1040,0 3,9 0,0
18.01.2017 14:00:00 -2,3 -3,2 -1,0 7 4 7 4 NNO 1040,1 3,7 0,0
18.01.2017 13:00:00 -2,2 -2,8 -1,7 4 2 7 4 ZO 1040,5 3,9 0,0
18.01.2017 12:00:00 -3,2 -4,1 -2,7 4 2 7 4 ONO 1041,0 3,3 0,0
18.01.2017 11:00:00 -3,7 -4,5 -3,4 4 2 7 4 O 1041,4 2,8 0,1
18.01.2017 10:00:00 -4,2 -4,7 -3,9 4 2 11 6 O 1041,3 2,1 0,0
18.01.2017 09:00:00 -4,8 -5,6 -4,4 4 2 11 6 ONO 1040,9 1,4 0,0
18.01.2017 08:00:00 -4,8 -5,4 -4,5 4 2 11 6 O 1040,7 1,4 0,0
18.01.2017 07:00:00 -4,7 -5,1 -4,6 7 4 11 6 ZO 1040,3 1,0 0,0
18.01.2017 06:00:00 -4,5 -5,0 -4,3 7 4 11 6 ZZO 1040,1 0,9 0,0
18.01.2017 05:00:00 -4,3 -4,8 -4,1 4 2 7 4 ZO 1040,5 1,2 0,0
18.01.2017 04:00:00 -4,6 -5,2 -4,3 4 2 7 4 ZZO 1040,5 0,8 0,0
18.01.2017 03:00:00 -4,4 -4,6 -4,1 4 2 7 4 ZZO 1040,7 1,4 0,0
18.01.2017 02:00:00 -4,4 -5,0 -4,1 4 2 7 4 OZO 1040,6 1,0 0,0
18.01.2017 01:00:00 -4,6 -5,0 -4,3 4 2 11 6 ZO 1040,5 0,3 0,0
18.01.2017 00:00:00 -4,6 -5,0 -4,4 4 2 11 6 ZZO 1040,6 0,3 0,0
17.01.2017 23:00:00 -5,0 -5,6 -4,7 7 4 11 6 OZO 1040,7 0,5 0,0
17.01.2017 22:00:00 -4,8 -4,9 -4,5 4 2 11 6 ZZO 1040,5 0,3 0,0
17.01.2017 21:00:00 -4,6 -5,2 -4,3 7 4 11 6 O 1040,4 1,3 0,0
17.01.2017 20:00:00 -4,2 -4,9 -3,8 4 2 7 4 O 1040,1 1,4 0,0
17.01.2017 19:00:00 -4,3 -4,7 -3,8 4 2 7 4 NO 1039,7 1,3 0,0
17.01.2017 18:00:00 -4,2 -4,4 -3,9 4 2 11 6 O 1039,4 1,7 0,0
17.01.2017 17:00:00 -3,8 -4,4 -3,2 4 2 7 4 NO 1039,0 2,4 0,0
17.01.2017 16:00:00 -3,8 -4,4 -3,0 4 2 7 4 NNO 1039,0 2,0 0,0
17.01.2017 15:00:00 -3,7 -4,4 -2,9 4 2 11 6 NNO 1038,8 1,9 0,0
17.01.2017 14:00:00 -3,2 -4,0 -2,1 4 2 7 4 N 1038,9 2,6 0,0
17.01.2017 13:00:00 -3,5 -4,3 -2,6 4 2 7 4 NNW 1039,0 2,1 0,0
17.01.2017 12:00:00 -3,8 -4,5 -3,1 4 2 7 4 WZW 1039,0 2,1 0,0
17.01.2017 11:00:00 -4,2 -4,5 -3,9 0 0 4 2 N 1039,0 1,2 0,0
17.01.2017 10:00:00 -4,3 -4,4 -4,0 0 0 7 4 N 1038,5 1,0 0,0
17.01.2017 09:00:00 -4,4 -4,8 -4,1 4 2 7 4 OZO 1037,9 1,1 0,0
17.01.2017 08:00:00 -4,5 -5,1 -4,0 4 2 7 4 NNO 1037,4 1,8 0,0
17.01.2017 07:00:00 -4,3 -4,6 -4,1 4 2 - - O 1036,7 2,4 0,0
17.01.2017 06:00:00 -4,3 -5,1 -3,9 4 2 7 4 Z 1036,3 2,9 0,0
17.01.2017 05:00:00 -4,3 -4,6 -4,0 0 0 11 6 N 1036,1 1,5 0,0
17.01.2017 04:00:00 -4,5 -4,9 -4,2 4 2 - - O 1035,4 3,5 0,0
17.01.2017 03:00:00 -4,4 -4,7 -4,0 4 2 11 6 NNO 1035,4 0,5 0,0
17.01.2017 02:00:00 -4,3 -4,7 -4,0 4 2 7 4 O 1035,0 1,3 0,0
17.01.2017 01:00:00 -4,1 -4,6 -3,9 7 4 11 6 NNO 1034,9 0,6 0,0
17.01.2017 00:00:00 -4,0 -4,1 -3,9 4 2 11 6 NO 1034,5 0,5 0,0
16.01.2017 23:00:00 -3,8 -4,2 -3,6 7 4 11 6 OZO 1034,0 0,3 0,0
16.01.2017 22:00:00 -3,3 -3,9 -3,1 4 2 7 4 O 1033,4 1,6 0,0
16.01.2017 21:00:00 -3,2 -3,7 -3,0 4 2 11 6 N 1032,8 2,3 0,0
16.01.2017 20:00:00 -3,2 -3,3 -2,7 7 4 14 8 NNO 1032,1 1,1 0,0
16.01.2017 19:00:00 -3,0 -3,2 -2,8 7 4 18 10 ONO 1031,4 2,8 0,0
16.01.2017 18:00:00 -3,3 -3,6 -2,9 11 6 14 8 NNO 1030,9 1,8 0,0
16.01.2017 17:00:00 -3,2 -3,8 -2,9 11 6 14 8 NO 1030,6 2,3 0,0
16.01.2017 16:00:00 -2,3 -3,1 -2,1 7 4 14 8 ONO 1029,9 4,7 0,0
16.01.2017 15:00:00 -2,1 -3,3 -1,6 4 2 11 6 NNO 1029,4 9 0,0
16.01.2017 14:00:00 -1,8 -2,9 -1,4 7 4 11 6 ONO 1028,9 9 0,0
16.01.2017 13:00:00 -2,2 -3,1 -2,8 7 4 11 6 NO 1028,8 10 0,0
16.01.2017 12:00:00 -2,2 -3,2 -1,7 7 4 11 6 NO 1028,7 10 0,0
16.01.2017 11:00:00 -1,9 -2,8 -1,5 7 4 14 8 O 1028,4 9 0,0
16.01.2017 10:00:00 -1,9 -2,2 -1,7 4 2 11 6 ONO 1027,9 6 0,0
16.01.2017 09:00:00 -2,1 -2,1 -2,0 4 2 11 6 ONO 1027,1 0,7 0,0
16.01.2017 08:00:00 -2,3 -2,4 -2,2 4 2 11 6 NO 1026,4 0,3 0,0
16.01.2017 07:00:00 -2,9 -2,9 -2,5 4 2 7 4 NNO 1025,9 0,2 0,0
16.01.2017 06:00:00 -2,8 -2,9 -2,9 4 2 11 6 ONO 1025,3 0,1 0,0
16.01.2017 05:00:00 -3,8 -4,3 -4,8 4 2 4 2 Z 1024,7 0,2 0,0
16.01.2017 04:00:00 -3,9 -3,9 -4,2 0 0 4 2 N 1024,4 0,1 0,0
16.01.2017 03:00:00 -5,2 -5,3 -5,5 4 2 4 2 Z 1024,1 0,1 0,0
16.01.2017 02:00:00 -5,7 -5,8 -7,1 0 0 7 4 N 1023,7 0,1 0,0
16.01.2017 01:00:00 -4,9 -5,5 -7,9 0 0 4 2 N 1023,5 0,1 0,0
16.01.2017 00:00:00 -5,5 -6,0 -7,6 4 2 4 2 ONO 1023,5 0,2 0,0
15.01.2017 23:00:00 -2,8 -3,0 -6,7 4 2 7 4 NNO 1023,1 0,2 0,0
15.01.2017 22:00:00 -2,3 -2,5 -5,0 4 2 7 4 ZW 1022,7 3,1 0,0
15.01.2017 21:00:00 -4,9 -5,3 -7,5 4 2 7 4 ZW 1022,6 0,6 0,0
15.01.2017 20:00:00 -2,8 -2,9 -7,0 4 2 4 2 ZZW 1022,1 1,4 0,0
15.01.2017 19:00:00 -3,7 -3,9 -7,0 4 2 4 2 Z 1022,0 0,6 0,0
15.01.2017 18:00:00 -2,0 -2,0 -6,5 4 2 7 4 ZW 1021,5 0,5 0,0
15.01.2017 17:00:00 -1,0 -1,7 -4,8 7 4 7 4 ZZW 1021,1 20 0,0
15.01.2017 16:00:00 1,9 -0,5 -1,2 4 2 11 6 WNW 1020,7 30 0,0
15.01.2017 15:00:00 1,9 -0,4 -0,1 7 4 11 6 W 1020,4 32 0,0
15.01.2017 14:00:00 1,6 -0,4 0,3 7 4 11 6 W 1020,2 26 0,0
15.01.2017 13:00:00 0,7 -1,1 -0,3 7 4 14 8 W 1020,1 29 0,0
15.01.2017 12:00:00 0,8 -1,1 0,2 11 6 25 14 W 1020,0 27 0,0
15.01.2017 11:00:00 -0,1 -1,1 -2,5 14 8 18 10 WZW 1019,8 19 0,1

tt = temperatuur
td = dauwpunt
tt 5cm = temperatuur 5cm
ff = windsnelheid
fx = windstoten
dd = windrichting
ppp = luchtdruk
vv = zicht
rr = neerslag

Weerstations in de omgeving